KO6TH-15 Weather Reports


Display with metric or nautical units.
time (UTC)temp
F
wind
direction
speed
MPH
gust
MPH
rain 1hr
in
rain 24hr
in
rain mn
in
humidity
%
barometer
mb
20260506080350 55 0 0.0 0.0 0.00 4.19 0.00 98
20260506073250 55 0 0.0 0.0 0.00 4.19 0.00 98
20260506072250 55 0 0.0 0.0 0.00 4.19 0.00 99
20260506071220 55 0 0.0 0.0 0.00 4.21 0.00 98
20260506070150 55 0 0.0 0.0 0.00 4.22 0.00 98
20260506062049 56 0 0.0 0.0 0.00 4.24 4.22 98
20260506061019 56 0 0.0 0.0 0.00 4.25 4.22 97
20260506050820 56 0 0.0 0.0 0.00 4.31 4.22 95
20260506044719 56 0 0.0 0.0 0.00 4.36 4.22 93
20260506043719 57 0 0.0 0.0 0.00 4.39 4.22 91
20260506042650 57 0 0.0 0.0 0.00 4.40 4.22 90
20260506041620 57 0 0.0 0.0 0.00 4.40 4.22 90
20260506040549 57 0 0.0 0.0 0.00 4.43 4.22 89
20260506035519 57 0 0.0 0.0 0.00 4.55 4.22 89
20260506034450 57 0 0.0 0.0 0.00 4.61 4.22 89
20260506033419 57 0 0.0 0.0 0.00 4.64 4.22 88
20260506032350 57 0 0.0 0.0 0.00 4.68 4.22 87
20260506031349 58 0 0.0 0.0 0.00 4.72 4.22 86
20260506030319 58 0 0.0 0.0 0.00 4.76 4.22 85
20260506025250 58 0 0.0 0.0 0.00 4.82 4.22 85
20260506024220 59 0 2.0 0.0 0.00 4.85 4.22 84
20260506023149 59 0 2.0 0.0 0.00 4.88 4.22 84
20260506022120 60 0 0.0 0.0 0.00 4.91 4.22 83
20260506021049 60 0 2.0 0.0 0.00 4.92 4.22 83
20260506020019 60 0 1.0 0.0 0.00 4.94 4.22 84
20260506014950 60 0 1.0 0.0 0.00 4.97 4.22 82
20260506013919 61 0 1.0 0.0 0.00 4.98 4.22 81
20260506012920 61 0 2.0 0.0 0.00 4.98 4.22 80
20260506011850 61 0 1.0 0.0 0.00 5.01 4.22 81
20260506010820 61 0 1.0 0.0 0.00 5.01 4.22 80
20260506005820 61 0 2.0 0.0 0.00 5.01 4.22 80
20260506004750 62 0 3.0 0.0 0.00 5.04 4.22 78
20260506003719 62 0 1.0 0.0 0.00 5.06 4.22 76
20260506002650 62 0 0.0 0.0 0.00 5.07 4.22 76
20260506001649 62 0 1.0 0.0 0.00 5.10 4.22 78
20260506000620 61 0 1.0 0.0 0.00 5.12 4.22 79
20260505235550 61 0 0.0 0.0 0.00 5.12 4.22 80
20260505234520 59 0 1.0 0.0 0.00 5.13 4.22 84
20260505233450 59 0 1.0 0.0 0.00 5.15 4.22 83
20260505232450 60 0 2.0 0.0 0.00 5.16 4.22 83
20260505231419 59 0 1.0 0.0 0.00 5.19 4.22 83
20260505230419 60 0 2.0 0.0 0.00 5.19 4.22 82
20260505225350 60 0 1.0 0.0 0.00 5.19 4.22 81
20260505224350 60 0 2.0 0.0 0.00 5.22 4.22 80
20260505223320 61 0 5.0 0.0 0.00 5.25 4.22 79
20260505222320 61 0 1.0 0.0 0.00 5.27 4.22 79
20260505221319 61 0 2.0 0.0 0.00 5.28 4.22 80
20260505220250 60 0 3.0 0.0 0.00 5.30 4.22 81
20260505215250 60 0 3.0 0.0 0.00 5.31 4.22 81
20260505214250 60 0 3.0 0.0 0.00 5.31 4.22 82
20260505213220 60 0 1.0 0.0 0.00 5.34 4.22 83
20260505212220 60 0 3.0 0.0 0.00 5.36 4.22 81
20260505211150 60 0 0.0 0.0 0.00 5.37 4.22 81
20260505210150 60 0 1.0 0.0 0.00 5.39 4.22 81
20260505205120 60 0 0.0 0.0 0.00 5.39 4.22 80
20260505204050 60 0 0.0 0.0 0.00 5.40 4.22 82
20260505203050 59 0 0.0 0.0 0.00 5.40 4.22 83
20260505202020 58 0 0.0 0.0 0.00 5.43 4.22 84
20260505200950 58 0 0.0 0.0 0.00 5.43 4.22 84
20260505195950 58 0 1.0 0.0 0.00 5.43 4.22 85
20260505194950 59 0 0.0 0.0 0.00 5.43 4.22 82
20260505193950 59 0 1.0 0.0 0.00 5.43 4.22 83
20260505192920 61 0 3.0 0.0 0.00 5.43 4.22 80
20260505191920 62 0 1.0 0.0 0.00 5.43 4.22 77
20260505190850 62 0 2.0 0.0 0.00 5.43 4.22 76
20260505185850 61 0 3.0 0.0 0.00 5.43 4.22 79
20260505184820 60 0 3.0 0.0 0.00 5.43 4.22 82
20260505183750 60 0 2.0 0.0 0.00 5.43 4.22 81
20260505182750 60 0 0.0 0.0 0.00 5.43 4.22 81
20260505181720 61 0 3.0 0.0 0.00 5.43 4.22 75
20260505180650 61 0 0.0 0.0 0.00 5.43 4.22 76
20260505175650 63 0 2.0 0.0 0.00 5.43 4.22 71
20260505174620 63 0 2.0 0.0 0.00 5.43 4.22 71
20260505173550 61 0 3.0 0.0 0.00 5.43 4.22 79
20260505172550 60 0 1.0 0.0 0.00 5.43 4.22 79
20260505171550 58 0 2.0 0.0 0.00 5.43 4.22 85
20260505170520 56 0 1.0 0.0 0.00 5.43 4.22 89
20260505165450 56 0 0.0 0.0 0.00 5.43 4.22 92
20260505164420 55 0 2.0 0.0 0.00 5.43 4.22 93
20260505163420 53 0 0.0 0.0 0.00 5.43 4.22 97
20260505162420 53 0 4.0 0.0 0.00 5.43 4.22 96
20260505161350 52 0 2.0 0.0 4.19 5.43 4.22 98
20260505160320 52 0 2.0 0.0 4.19 5.43 4.22 99
20260505153220 51 0 0.0 0.0 4.19 5.43 4.22 99
20260505152220 50 0 1.0 0.0 4.19 5.43 4.22 99
20260505151150 50 0 0.0 0.0 0.00 1.23 0.02 99
20260505150120 50 0 0.0 0.0 0.00 1.23 0.02 99
20260505124650 49 0 0.0 0.0 0.00 1.23 0.02 99
20260505123620 49 0 0.0 0.0 0.00 1.23 0.02 99
20260505122620 49 0 0.0 0.0 0.00 1.23 0.02 99
20260505121550 49 0 0.0 0.0 0.00 1.23 0.02 99
20260505120550 49 0 0.0 0.0 0.00 1.23 0.02 99
20260505115520 49 0 0.0 0.0 0.00 1.23 0.02 99
20260505114450 49 0 0.0 0.0 0.00 1.23 0.02 99
20260505113450 49 0 0.0 0.0 0.00 1.23 0.02 99
20260505112420 49 0 0.0 0.0 0.00 1.23 0.02 99
20260505111350 49 0 0.0 0.0 0.00 1.23 0.02 99
20260505110350 49 0 0.0 0.0 0.00 1.23 0.02 99
20260505101250 49 0 0.0 0.0 0.00 1.23 0.02 99
20260505100250 49 0 0.0 0.0 0.00 1.23 0.02 99
20260505095220 49 0 0.0 0.0 0.00 1.23 0.02 99
20260505094220 49 0 1.0 0.0 0.00 1.23 0.02 99
20260505093150 49 0 2.0 0.0 0.00 1.23 0.02 99
20260505092150 49 0 1.0 0.0 0.00 1.23 0.02 99
20260505091120 49 0 0.0 0.0 0.00 1.23 0.02 99
20260505090120 49 0 0.0 0.0 0.00 1.23 0.02 99
20260505085050 49 0 0.0 0.0 0.00 1.23 0.02 99
20260505084020 49 0 0.0 0.0 0.00 1.23 0.02 99
20260505083020 49 0 0.0 0.0 0.00 1.23 0.02 99
20260505081950 49 0 0.0 0.0 0.00 1.23 0.02 99
20260505080920 49 0 0.0 0.0 0.01 1.23 0.02 99